DW1289 Weather Reports


time (UTC)temp
C
wind
direction
speed
KPH
gust
KPH
rain 1hr
cm
rain 24hr
cm
rain mn
cm
humidity
%
barometer
mb
20260503012016 11 0.0 1.6 0.00 0.00 0.00 59 1018.4
20260503011016 11 0.0 1.6 0.00 0.00 0.00 59 1018.2
20260503010036 11 0.0 1.6 0.00 0.00 0.00 58 1018.1
20260503005016 11 0.0 3.2 0.00 0.00 0.00 57 1018.0
20260503004036 11 0.0 3.2 0.00 0.00 0.00 56 1018.0
20260503003016 12 248 1.6 3.2 0.00 0.00 0.00 55 1017.9
20260503002016 12 248 1.6 4.8 0.00 0.00 0.00 54 1017.8
20260503001016 12 248 1.6 3.2 0.00 0.00 0.00 54 1017.6
20260503000016 12 248 1.6 4.8 0.00 0.00 0.00 53 1017.6
20260502235016 12 248 1.6 4.8 0.00 0.00 0.00 53 1017.6
20260502234016 13 270 1.6 6.4 0.00 0.00 0.00 52 1017.5
20260502233016 13 270 1.6 4.8 0.00 0.00 0.00 51 1017.5
20260502232016 13 248 1.6 6.4 0.00 0.00 0.00 51 1017.5
20260502231016 13 0 1.6 11.3 0.00 0.00 0.00 50 1017.5
20260502230016 13 248 1.6 6.4 0.00 0.00 0.00 53 1017.6
20260502225036 13 0.0 3.2 0.00 0.00 0.00 52 1017.6
20260502224036 13 248 1.6 4.8 0.00 0.00 0.00 54 1017.5
20260502223036 13 0.0 6.4 0.00 0.00 0.00 50 1017.7
20260502222017 13 45 1.6 6.4 0.00 0.00 0.00 48 1017.7
20260502221016 13 338 1.6 6.4 0.00 0.00 0.00 51 1017.6
20260502220016 13 45 3.2 8.0 0.00 0.00 0.00 51 1017.5
20260502215016 13 45 3.2 9.7 0.00 0.00 0.00 51 1017.4
20260502214036 13 248 1.6 6.4 0.00 0.00 0.00 51 1017.3
20260502213016 13 45 3.2 6.4 0.00 0.00 0.00 52 1017.4
20260502212016 13 45 1.6 4.8 0.00 0.00 0.00 58 1017.4
20260502211016 13 0.0 4.8 0.00 0.00 0.00 57 1017.5
20260502210016 13 270 1.6 4.8 0.00 0.00 0.00 55 1017.5
20260502205016 13 0.0 3.2 0.00 0.00 0.00 55 1017.5
20260502204016 13 45 1.6 4.8 0.00 0.00 0.00 55 1017.6
20260502203016 13 248 3.2 9.7 0.00 0.00 0.00 56 1017.6
20260502202017 13 270 1.6 8.0 0.00 0.00 0.00 55 1017.6
20260502201016 13 0 1.6 8.0 0.00 0.00 0.00 54 1017.7
20260502200016 13 315 1.6 6.4 0.00 0.00 0.00 54 1017.8
20260502195016 13 338 1.6 4.8 0.00 0.00 0.00 54 1017.8
20260502194016 13 338 1.6 4.8 0.00 0.00 0.00 54 1017.9
20260502193016 14 270 1.6 6.4 0.00 0.00 0.00 52 1017.9
20260502192036 14 248 1.6 6.4 0.00 0.00 0.00 53 1017.9
20260502191016 14 248 3.2 14.5 0.00 0.00 0.00 54 1017.9
20260502190016 15 248 4.8 11.3 0.00 0.00 0.00 55 1018.0
20260502185036 15 225 3.2 8.0 0.00 0.00 0.00 57 1018.2
20260502184016 15 248 4.8 14.5 0.00 0.00 0.00 56 1018.2
20260502183016 14 248 4.8 11.3 0.00 0.00 0.00 59 1018.3
20260502182016 13 248 4.8 11.3 0.00 0.00 0.00 61 1018.4
20260502181036 13 248 3.2 12.9 0.00 0.00 0.00 59 1018.6
20260502164016 12 248 1.6 4.8 0.00 0.00 0.00 63 1019.2
20260502163016 12 270 1.6 4.8 0.00 0.00 0.00 65 1019.2
20260502162016 12 248 1.6 6.4 0.00 0.00 0.00 65 1019.4
20260502161016 12 315 1.6 6.4 0.00 0.00 0.00 65 1019.3
20260502152016 11 0.0 3.2 0.00 0.00 0.00 63 1019.0
20260502151016 11 135 1.6 4.8 0.00 0.00 0.00 65 1019.1
20260502123016 5 0.0 0.0 0.00 0.00 0.00 91 1018.6
20260502122016 5 0.0 0.0 0.00 0.00 0.00 91 1018.7
20260502121016 5 0.0 0.0 0.00 0.00 0.00 91 1018.5
20260502115016 4 0.0 0.0 0.00 0.00 0.00 90 1018.4
20260502114016 4 0.0 0.0 0.00 0.00 0.00 90 1018.3
20260502113036 4 0.0 0.0 0.00 0.00 0.00 89 1018.0
20260502112016 3 0.0 0.0 0.00 0.00 0.00 89 1017.9
20260502111016 3 0.0 0.0 0.00 0.00 0.00 89 1018.0
20260502110016 3 0.0 0.0 0.00 0.00 0.00 87 1017.9
20260502105036 3 0.0 0.0 0.00 0.00 0.00 87 1017.8
20260502104016 3 0.0 0.0 0.00 0.00 0.00 87 1017.7
20260502103036 3 0.0 0.0 0.00 0.00 0.00 87 1017.7
20260502102036 3 0.0 0.0 0.00 0.00 0.00 87 1017.9
20260502101016 3 0.0 0.0 0.00 0.00 0.00 87 1017.6
20260502091016 4 0.0 0.0 0.00 0.00 0.00 86 1017.9
20260502071016 3 0.0 0.0 0.00 0.00 0.00 82 1017.7
20260502070016 4 0.0 0.0 0.00 0.00 0.00 81 1017.5
20260502065016 4 0.0 0.0 0.00 0.00 0.00 81 1017.5
20260502064016 4 0.0 0.0 0.00 0.00 0.00 80 1017.5
20260502063056 4 0.0 0.0 0.00 0.00 0.00 80 1017.7
20260502062016 4 0.0 0.0 0.00 0.00 0.00 80 1017.8
20260502061016 5 0.0 0.0 0.00 0.00 0.00 80 1017.8
20260502060016 5 0.0 0.0 0.00 0.00 0.00 80 1018.1
20260502055016 5 0.0 0.0 0.00 0.00 0.00 79 1017.9
20260502054016 5 0.0 0.0 0.00 0.00 0.00 79 1017.9
20260502053036 5 0.0 0.0 0.00 0.00 0.00 78 1018.0
20260502052016 5 0.0 0.0 0.00 0.00 0.00 78 1018.1
20260502051016 5 0.0 0.0 0.00 0.00 0.00 77 1018.1
20260502050016 6 0.0 0.0 0.00 0.00 0.00 77 1018.2
20260502045016 6 0.0 0.0 0.00 0.00 0.00 77 1018.1
20260502044016 6 0.0 0.0 0.00 0.00 0.00 76 1018.1
20260502043016 6 0.0 0.0 0.00 0.00 0.00 76 1018.2
20260502042016 6 0.0 0.0 0.00 0.00 0.00 74 1018.2
20260502041056 6 0.0 0.0 0.00 0.00 0.00 73 1018.3
20260502040016 7 0.0 0.0 0.00 0.00 0.00 72 1018.3
20260502035017 7 0.0 0.0 0.00 0.00 0.00 71 1018.2
20260502034016 7 0.0 0.0 0.00 0.00 0.00 71 1018.2
20260502033016 7 0.0 0.0 0.00 0.00 0.00 71 1018.1
20260502032016 7 0.0 0.0 0.00 0.00 0.00 69 1017.9
20260502031016 8 0.0 0.0 0.00 0.00 0.00 67 1018.1
20260502030017 8 0.0 0.0 0.00 0.00 0.00 66 1018.2
20260502025016 8 0.0 0.0 0.00 0.00 0.00 64 1018.1
20260502024017 8 0.0 0.0 0.00 0.00 0.00 63 1018.2
20260502023017 9 0.0 0.0 0.00 0.00 0.00 62 1018.2
20260502022016 10 0.0 0.0 0.00 0.00 0.00 60 1017.9
20260502021016 10 0.0 0.0 0.00 0.00 0.00 58 1017.8
20260502020016 10 0.0 0.0 0.00 0.00 0.00 57 1017.7
20260502015016 10 0.0 0.0 0.00 0.00 0.00 57 1017.6
20260502014056 11 0.0 0.0 0.00 0.00 0.00 56 1017.2
20260502013016 11 0.0 0.0 0.00 0.00 0.00 55 1017.0